Time,TemperatureF,DewpointF,PressureIn,WindDirection,WindDirectionDegrees,WindSpeedMPH,WindSpeedGustMPH,Humidity,HourlyPrecipIn,Conditions,Clouds,dailyrainin,SoftwareType,DateUTC
2013-01-22 00:04:00,19.0,-6.0,-100.00,NNE,20,9.0,10.0,31,0.00,,,-99.99,,2013-01-22 05:04:00,
2013-01-22 00:12:00,20.0,-6.0,-100.00,NE,35,12.0,14.0,30,0.00,,,-99.99,,2013-01-22 05:12:00,
2013-01-22 00:22:00,21.0,-6.0,-100.00,NW,325,7.0,14.0,29,0.00,,,-99.99,,2013-01-22 05:22:00,
2013-01-22 00:42:00,21.0,-6.0,-100.00,NE,35,12.0,17.0,29,0.00,,,-99.99,,2013-01-22 05:42:00,
2013-01-22 00:52:00,22.0,-6.0,-100.00,NNE,30,14.0,17.0,28,0.00,,,-99.99,,2013-01-22 05:52:00,
2013-01-22 01:02:00,24.0,-5.0,-100.00,NE,40,14.0,17.0,27,0.00,,,-99.99,,2013-01-22 06:02:00,
2013-01-22 01:12:00,24.0,-5.0,-100.00,NNE,25,11.0,15.0,26,0.00,,,-99.99,,2013-01-22 06:12:00,
2013-01-22 01:22:00,24.0,-5.0,-100.00,NNE,15,11.0,19.0,26,0.00,,,-99.99,,2013-01-22 06:22:00,
2013-01-22 01:32:00,24.0,-6.0,-100.00,NNE,25,14.0,17.0,26,0.00,,,-99.99,,2013-01-22 06:32:00,
2013-01-22 01:42:00,24.0,-5.0,-100.00,North,350,12.0,19.0,26,0.00,,,-99.99,,2013-01-22 06:42:00,
2013-01-22 01:52:00,21.0,-8.0,-100.00,NW,315,11.0,14.0,27,0.00,,,-99.99,,2013-01-22 06:52:00,
2013-01-22 02:02:00,21.0,-7.0,-100.00,North,5,10.0,13.0,27,0.00,,,-99.99,,2013-01-22 07:02:00,
2013-01-22 02:12:00,21.0,-7.0,-100.00,North,5,10.0,13.0,27,0.00,,,-99.99,,2013-01-22 07:12:00,
2013-01-22 02:22:00,23.0,-6.0,-100.00,NNE,15,15.0,17.0,26,0.00,,,-99.99,,2013-01-22 07:22:00,
2013-01-22 02:32:00,24.0,-6.0,-100.00,NNE,25,14.0,21.0,26,0.00,,,-99.99,,2013-01-22 07:32:00,
2013-01-22 02:42:00,24.0,-6.0,-100.00,NNE,15,14.0,20.0,26,0.00,,,-99.99,,2013-01-22 07:42:00,
2013-01-22 02:53:00,24.0,-6.0,-100.00,North,10,13.0,18.0,26,0.00,,,-99.99,,2013-01-22 07:53:00,
2013-01-22 03:02:00,24.0,-6.0,-100.00,North,350,12.0,16.0,26,0.00,,,-99.99,,2013-01-22 08:02:00,
2013-01-22 03:12:00,24.0,-6.0,-100.00,North,5,13.0,16.0,26,0.00,,,-99.99,,2013-01-22 08:12:00,
2013-01-22 03:22:00,24.0,-6.0,-100.00,North,5,13.0,16.0,26,0.00,,,-99.99,,2013-01-22 08:22:00,
2013-01-22 03:32:00,19.0,-10.0,-100.00,North,5,5.0,11.0,27,0.00,,,-99.99,,2013-01-22 08:32:00,
2013-01-22 03:42:00,20.0,-9.0,-100.00,NNE,15,7.0,13.0,26,0.00,,,-99.99,,2013-01-22 08:42:00,
2013-01-22 03:52:00,21.0,-8.0,-100.00,NNE,25,11.0,14.0,26,0.00,,,-99.99,,2013-01-22 08:52:00,
2013-01-22 04:02:00,22.0,-7.0,-100.00,NE,35,11.0,15.0,26,0.00,,,-99.99,,2013-01-22 09:02:00,
2013-01-22 04:12:00,22.0,-7.0,-100.00,NE,35,14.0,17.0,26,0.00,,,-99.99,,2013-01-22 09:12:00,
2013-01-22 04:22:00,23.0,-7.0,-100.00,NNE,30,9.0,14.0,26,0.00,,,-99.99,,2013-01-22 09:22:00,
2013-01-22 04:32:00,25.0,-6.0,-100.00,NNE,30,17.0,21.0,25,0.00,,,-99.99,,2013-01-22 09:32:00,
2013-01-22 04:42:00,24.0,-6.0,-100.00,NNE,15,13.0,16.0,26,0.00,,,-99.99,,2013-01-22 09:42:00,
2013-01-22 04:52:00,24.0,-6.0,-100.00,NE,45,13.0,17.0,26,0.00,,,-99.99,,2013-01-22 09:52:00,
2013-01-22 05:02:00,23.0,-7.0,-100.00,NNE,30,13.0,18.0,25,0.00,,,-99.99,,2013-01-22 10:02:00,
2013-01-22 05:12:00,23.0,-7.0,-100.00,NNE,25,12.0,16.0,25,0.00,,,-99.99,,2013-01-22 10:12:00,
2013-01-22 05:22:00,24.0,-6.0,-100.00,NNE,20,16.0,20.0,25,0.00,,,-99.99,,2013-01-22 10:22:00,
2013-01-22 05:32:00,21.0,-9.0,-100.00,SSW,195,3.0,17.0,26,0.00,,,-99.99,,2013-01-22 10:32:00,
2013-01-22 05:42:00,23.0,-7.0,-100.00,WSW,255,4.0,7.0,25,0.00,,,-99.99,,2013-01-22 10:42:00,
2013-01-22 05:52:00,28.0,-6.0,-100.00,East,80,6.0,10.0,22,0.00,,,-99.99,,2013-01-22 10:52:00,
2013-01-22 06:02:00,24.0,-8.0,-100.00,East,80,6.0,12.0,23,0.00,,,-99.99,,2013-01-22 11:02:00,
2013-01-22 06:12:00,25.0,-8.0,-100.00,NE,40,5.0,11.0,23,0.00,,,-99.99,,2013-01-22 11:12:00,
2013-01-22 06:22:00,24.0,-8.0,-100.00,ENE,65,12.0,14.0,24,0.00,,,-99.99,,2013-01-22 11:22:00,
2013-01-22 06:33:00,23.0,-8.0,-100.00,NNE,30,15.0,19.0,24,0.00,,,-99.99,,2013-01-22 11:33:00,
2013-01-22 06:43:00,26.0,-6.0,-100.00,ENE,70,6.0,17.0,23,0.00,,,-99.99,,2013-01-22 11:43:00,
2013-01-22 06:53:00,22.0,-8.0,-100.00,NE,35,7.0,14.0,24,0.00,,,-99.99,,2013-01-22 11:53:00,
2013-01-22 07:03:00,22.0,-9.0,-100.00,North,0,2.0,6.0,24,0.00,,,-99.99,,2013-01-22 12:03:00,
2013-01-22 07:12:00,21.0,-9.0,-100.00,ENE,60,4.0,12.0,24,0.00,,,-99.99,,2013-01-22 12:12:00,
2013-01-22 07:23:00,26.0,-7.0,-100.00,SE,135,5.0,14.0,22,0.00,,,-99.99,,2013-01-22 12:23:00,
2013-01-22 07:43:00,23.0,-9.0,-100.00,SSE,150,8.0,10.0,23,0.00,,,-99.99,,2013-01-22 12:43:00,
2013-01-22 07:52:00,24.0,-9.0,-100.00,SE,135,8.0,12.0,22,0.00,,,-99.99,,2013-01-22 12:52:00,
2013-01-22 08:03:00,25.0,-8.0,-100.00,SE,130,4.0,11.0,22,0.00,,,-99.99,,2013-01-22 13:03:00,
2013-01-22 08:13:00,23.0,-10.0,-100.00,SSE,165,9.0,13.0,22,0.00,,,-99.99,,2013-01-22 13:13:00,
2013-01-22 08:23:00,27.0,-8.0,-100.00,SE,145,5.0,12.0,20,0.00,,,-99.99,,2013-01-22 13:23:00,
2013-01-22 08:33:00,25.0,-10.0,-100.00,SE,125,9.0,16.0,20,0.00,,,-99.99,,2013-01-22 13:33:00,
2013-01-22 08:43:00,24.0,-10.0,-100.00,SSW,210,4.0,9.0,21,0.00,,,-99.99,,2013-01-22 13:43:00,
2013-01-22 08:53:00,30.0,-7.0,-100.00,SSW,210,4.0,24.0,19,0.00,,,-99.99,,2013-01-22 13:53:00,
2013-01-22 09:03:00,28.0,-8.0,-100.00,SW,215,11.0,17.0,20,0.00,,,-99.99,,2013-01-22 14:03:00,
2013-01-22 09:12:00,29.0,-7.0,-100.00,SSW,210,12.0,17.0,20,0.00,,,-99.99,,2013-01-22 14:12:00,
2013-01-22 09:23:00,31.0,-6.0,-100.00,SW,215,16.0,25.0,19,0.00,,,-99.99,,2013-01-22 14:23:00,
2013-01-22 09:33:00,29.0,-8.0,-100.00,SW,230,9.0,17.0,19,0.00,,,-99.99,,2013-01-22 14:33:00,
2013-01-22 09:43:00,29.0,-8.0,-100.00,SW,230,9.0,17.0,19,0.00,,,-99.99,,2013-01-22 14:43:00,
2013-01-22 09:53:00,31.0,-7.0,-100.00,SSW,210,4.0,9.0,18,0.00,,,-99.99,,2013-01-22 14:53:00,
2013-01-22 10:03:00,28.0,-9.0,-100.00,South,170,6.0,11.0,18,0.00,,,-99.99,,2013-01-22 15:03:00,
2013-01-22 10:12:00,28.0,-9.0,-100.00,South,170,9.0,14.0,19,0.00,,,-99.99,,2013-01-22 15:12:00,
2013-01-22 10:23:00,27.0,-8.0,-100.00,SSW,210,7.0,11.0,20,0.00,,,-99.99,,2013-01-22 15:23:00,
2013-01-22 10:34:00,32.0,-5.0,-100.00,SW,235,11.0,17.0,20,0.00,,,-99.99,,2013-01-22 15:34:00,
2013-01-22 10:43:00,32.0,-5.0,-100.00,SW,235,11.0,17.0,20,0.00,,,-99.99,,2013-01-22 15:43:00,
2013-01-22 10:52:00,31.0,-6.0,-100.00,WSW,245,11.0,17.0,19,0.00,,,-99.99,,2013-01-22 15:52:00,
2013-01-22 11:03:00,31.0,-6.0,-100.00,WSW,255,9.0,15.0,19,0.00,,,-99.99,,2013-01-22 16:03:00,
2013-01-22 11:13:00,33.0,-5.0,-100.00,SW,235,9.0,14.0,19,0.00,,,-99.99,,2013-01-22 16:13:00,
2013-01-22 11:23:00,33.0,-4.0,-100.00,West,270,12.0,19.0,20,0.00,,,-99.99,,2013-01-22 16:23:00,
2013-01-22 11:33:00,34.0,-3.0,-100.00,West,265,10.0,14.0,20,0.00,,,-99.99,,2013-01-22 16:33:00,
2013-01-22 11:43:00,34.0,-3.0,-100.00,West,265,10.0,19.0,20,0.00,,,-99.99,,2013-01-22 16:43:00,
2013-01-22 11:53:00,36.0,-1.0,-100.00,WNW,285,12.0,19.0,19,0.00,,,-99.99,,2013-01-22 16:53:00,
2013-01-22 12:03:00,36.0,-1.0,-100.00,SW,235,6.0,16.0,19,0.00,,,-99.99,,2013-01-22 17:03:00,
2013-01-22 12:12:00,37.0,-1.0,-100.00,WNW,285,9.0,13.0,19,0.00,,,-99.99,,2013-01-22 17:12:00,
2013-01-22 12:23:00,38.0,0.0,-100.00,WNW,295,10.0,14.0,19,0.00,,,-99.99,,2013-01-22 17:23:00,
2013-01-22 12:34:00,40.0,0.0,-100.00,NW,305,9.0,18.0,18,0.00,,,-99.99,,2013-01-22 17:34:00,
2013-01-22 12:43:00,40.0,-1.0,-100.00,WNW,290,8.0,21.0,17,0.00,,,-99.99,,2013-01-22 17:43:00,
2013-01-22 12:53:00,44.0,3.0,-100.00,NNW,340,4.0,9.0,17,0.00,,,-99.99,,2013-01-22 17:53:00,
2013-01-22 13:03:00,46.0,3.0,-100.00,North,350,5.0,7.0,16,0.00,,,-99.99,,2013-01-22 18:03:00,
2013-01-22 13:13:00,45.0,1.0,-100.00,NNW,345,6.0,12.0,15,0.00,,,-99.99,,2013-01-22 18:13:00,
2013-01-22 13:23:00,46.0,1.0,-100.00,NW,325,4.0,7.0,14,0.00,,,-99.99,,2013-01-22 18:23:00,
2013-01-22 13:33:00,48.0,0.0,-100.00,NW,315,2.0,7.0,13,0.00,,,-99.99,,2013-01-22 18:33:00,
2013-01-22 13:43:00,49.0,0.0,-100.00,NNW,345,4.0,6.0,12,0.00,,,-99.99,,2013-01-22 18:43:00,
2013-01-22 13:53:00,44.0,-7.0,-100.00,West,280,4.0,16.0,11,0.00,,,-99.99,,2013-01-22 18:53:00,
2013-01-22 14:03:00,47.0,-5.0,-100.00,NW,315,2.0,6.0,10,0.00,,,-99.99,,2013-01-22 19:03:00,
2013-01-22 14:13:00,47.0,-6.0,-100.00,WNW,300,3.0,6.0,10,0.00,,,-99.99,,2013-01-22 19:13:00,
2013-01-22 14:23:00,44.0,-5.0,-100.00,NNW,330,14.0,21.0,12,0.00,,,-99.99,,2013-01-22 19:23:00,
2013-01-22 14:43:00,41.0,-3.0,-100.00,NW,325,16.0,29.0,14,0.00,,,-99.99,,2013-01-22 19:43:00,
2013-01-22 14:53:00,42.0,-2.0,-100.00,NNW,330,15.0,23.0,15,0.00,,,-99.99,,2013-01-22 19:53:00,
2013-01-22 15:03:00,42.0,-2.0,-100.00,NW,325,18.0,26.0,15,0.00,,,-99.99,,2013-01-22 20:03:00,
2013-01-22 15:12:00,42.0,-1.0,-100.00,NNW,330,17.0,26.0,15,0.00,,,-99.99,,2013-01-22 20:12:00,
2013-01-22 15:23:00,42.0,-1.0,-100.00,NNW,330,17.0,24.0,15,0.00,,,-99.99,,2013-01-22 20:23:00,
2013-01-22 15:33:00,42.0,-2.0,-100.00,NW,315,17.0,27.0,15,0.00,,,-99.99,,2013-01-22 20:33:00,
2013-01-22 15:43:00,42.0,-3.0,-100.00,NW,320,22.0,30.0,15,0.00,,,-99.99,,2013-01-22 20:43:00,
2013-01-22 15:53:00,41.0,-3.0,-100.00,NW,310,25.0,34.0,15,0.00,,,-99.99,,2013-01-22 20:53:00,
2013-01-22 16:03:00,41.0,-1.0,-100.00,NW,315,22.0,32.0,16,0.00,,,-99.99,,2013-01-22 21:03:00,
2013-01-22 16:13:00,41.0,-1.0,-100.00,NW,315,21.0,30.0,16,0.00,,,-99.99,,2013-01-22 21:13:00,
2013-01-22 16:22:00,41.0,-2.0,-100.00,NW,315,23.0,34.0,16,0.00,,,-99.99,,2013-01-22 21:22:00,
2013-01-22 16:33:00,40.0,-3.0,-100.00,NW,320,30.0,40.0,15,0.00,,,-99.99,,2013-01-22 21:33:00,
2013-01-22 16:52:00,40.0,-2.0,-100.00,NW,310,26.0,37.0,16,0.00,,,-99.99,,2013-01-22 21:52:00,
2013-01-22 17:03:00,41.0,-2.0,-100.00,NW,325,16.0,34.0,15,0.00,,,-99.99,,2013-01-22 22:03:00,
2013-01-22 17:12:00,42.0,-2.0,-100.00,NW,325,11.0,27.0,15,0.00,,,-99.99,,2013-01-22 22:12:00,
2013-01-22 17:22:00,42.0,-1.0,-100.00,NNW,330,11.0,25.0,16,0.00,,,-99.99,,2013-01-22 22:22:00,
2013-01-22 17:43:00,42.0,-2.0,-100.00,North,10,8.0,14.0,15,0.00,,,-99.99,,2013-01-22 22:43:00,
2013-01-22 17:53:00,42.0,-3.0,-100.00,North,5,7.0,19.0,14,0.00,,,-99.99,,2013-01-22 22:53:00,
2013-01-22 18:03:00,43.0,-3.0,-100.00,NW,320,12.0,16.0,14,0.00,,,-99.99,,2013-01-22 23:03:00,
2013-01-22 18:12:00,41.0,-4.0,-100.00,WNW,300,12.0,19.0,14,0.00,,,-99.99,,2013-01-22 23:12:00,
2013-01-22 18:23:00,40.0,-5.0,-100.00,NW,305,15.0,23.0,14,0.00,,,-99.99,,2013-01-22 23:23:00,
2013-01-22 18:33:00,38.0,-6.0,-100.00,NW,305,17.0,26.0,14,0.00,,,-99.99,,2013-01-22 23:33:00,
2013-01-22 18:43:00,38.0,-6.0,-100.00,NW,315,21.0,29.0,14,0.00,,,-99.99,,2013-01-22 23:43:00,
2013-01-22 18:52:00,37.0,-6.0,-100.00,NW,320,20.0,26.0,15,0.00,,,-99.99,,2013-01-22 23:52:00,
2013-01-22 19:03:00,36.0,-7.0,-100.00,NNW,330,17.0,27.0,15,0.00,,,-99.99,,2013-01-23 00:03:00,
2013-01-22 19:12:00,35.0,-6.0,-100.00,NW,320,22.0,30.0,16,0.00,,,-99.99,,2013-01-23 00:12:00,
2013-01-22 19:22:00,35.0,-7.0,-100.00,NW,320,25.0,30.0,16,0.00,,,-99.99,,2013-01-23 00:22:00,
2013-01-22 19:33:00,35.0,-7.0,-100.00,NW,320,25.0,36.0,16,0.00,,,-99.99,,2013-01-23 00:33:00,
2013-01-22 19:43:00,34.0,-7.0,-100.00,NW,320,24.0,34.0,16,0.00,,,-99.99,,2013-01-23 00:43:00,
2013-01-22 19:52:00,35.0,-6.0,-100.00,NW,315,25.0,30.0,16,0.00,,,-99.99,,2013-01-23 00:52:00,
2013-01-22 20:03:00,35.0,-7.0,-100.00,NW,315,22.0,33.0,15,0.00,,,-99.99,,2013-01-23 01:03:00,
2013-01-22 20:13:00,35.0,-8.0,-100.00,NW,325,19.0,29.0,15,0.00,,,-99.99,,2013-01-23 01:13:00,
2013-01-22 20:22:00,35.0,-7.0,-100.00,NW,320,23.0,30.0,15,0.00,,,-99.99,,2013-01-23 01:22:00,
2013-01-22 20:33:00,35.0,-7.0,-100.00,NW,325,22.0,34.0,15,0.00,,,-99.99,,2013-01-23 01:33:00,
2013-01-22 20:43:00,35.0,-7.0,-100.00,NW,320,24.0,34.0,15,0.00,,,-99.99,,2013-01-23 01:43:00,
2013-01-22 20:52:00,35.0,-7.0,-100.00,NW,310,25.0,37.0,16,0.00,,,-99.99,,2013-01-23 01:52:00,
2013-01-22 21:03:00,35.0,-6.0,-100.00,NW,315,27.0,35.0,16,0.00,,,-99.99,,2013-01-23 02:03:00,
2013-01-22 21:12:00,34.0,-6.0,-100.00,NW,320,22.0,34.0,16,0.00,,,-99.99,,2013-01-23 02:12:00,
2013-01-22 21:23:00,34.0,-6.0,-100.00,NW,320,22.0,34.0,16,0.00,,,-99.99,,2013-01-23 02:23:00,
2013-01-22 21:33:00,34.0,-6.0,-100.00,NW,320,20.0,30.0,17,0.00,,,-99.99,,2013-01-23 02:33:00,
2013-01-22 21:42:00,35.0,-6.0,-100.00,NW,320,23.0,32.0,16,0.00,,,-99.99,,2013-01-23 02:42:00,
2013-01-22 21:53:00,36.0,-7.0,-100.00,NNW,340,27.0,35.0,15,0.00,,,-99.99,,2013-01-23 02:53:00,
2013-01-22 22:03:00,35.0,-7.0,-100.00,NNW,335,18.0,34.0,16,0.00,,,-99.99,,2013-01-23 03:03:00,
2013-01-22 22:12:00,36.0,-7.0,-100.00,NNW,330,21.0,30.0,15,0.00,,,-99.99,,2013-01-23 03:12:00,
2013-01-22 22:23:00,34.0,-7.0,-100.00,NNW,335,12.0,24.0,16,0.00,,,-99.99,,2013-01-23 03:23:00,
2013-01-22 22:33:00,34.0,-7.0,-100.00,South,190,9.0,16.0,16,0.00,,,-99.99,,2013-01-23 03:33:00,
2013-01-22 22:42:00,33.0,-8.0,-100.00,West,280,10.0,30.0,16,0.00,,,-99.99,,2013-01-23 03:42:00,
2013-01-22 22:53:00,35.0,-6.0,-100.00,WSW,245,13.0,29.0,16,0.00,,,-99.99,,2013-01-23 03:53:00,
2013-01-22 23:03:00,36.0,-6.0,-100.00,NW,310,24.0,31.0,15,0.00,,,-99.99,,2013-01-23 04:03:00,
2013-01-22 23:12:00,35.0,-7.0,-100.00,NW,310,18.0,29.0,15,0.00,,,-99.99,,2013-01-23 04:12:00,
2013-01-22 23:22:00,36.0,-8.0,-100.00,NE,40,11.0,32.0,14,0.00,,,-99.99,,2013-01-23 04:22:00,
2013-01-22 23:32:00,36.0,-9.0,-100.00,NE,50,4.0,23.0,14,0.00,,,-99.99,,2013-01-23 04:32:00,
2013-01-22 23:43:00,35.0,-8.0,-100.00,NNW,345,10.0,22.0,14,0.00,,,-99.99,,2013-01-23 04:43:00,
2013-01-22 23:52:00,33.0,-8.0,-100.00,WSW,255,6.0,25.0,16,0.00,,,-99.99,,2013-01-23 04:52:00,